Hourly Weather Kiszkowo

Today, 30 July, Friday

Time Temperature Precipitation Wind Pressure Humidity
00:00 +17°C° 0 mm 3 mps 750 mmHg 65%
01:00 +16°C° 0 mm 3 mps 750 mmHg 67%
02:00 +14°C° 0 mm 3 mps 750 mmHg 70%
03:00 +14°C° 0 mm 3 mps 749 mmHg 73%
04:00 +13°C° 0 mm 3 mps 749 mmHg 77%
05:00 +15°C° 0 mm 4 mps 749 mmHg 69%
06:00 +18°C° 0 mm 4 mps 749 mmHg 61%
07:00 +19°C° 0 mm 5 mps 750 mmHg 53%
08:00 +21°C° 0 mm 5 mps 749 mmHg 49%
09:00 +22°C° 0 mm 6 mps 749 mmHg 46%
10:00 +24°C° 0 mm 7 mps 749 mmHg 42%
11:00 +24°C° 0 mm 7 mps 749 mmHg 40%
12:00 +26°C° 0 mm 7 mps 748 mmHg 38%
13:00 +27°C° 0 mm 7 mps 748 mmHg 36%
14:00 +27°C° 0 mm 7 mps 748 mmHg 36%
15:00 +28°C° 0 mm 7 mps 747 mmHg 35%
16:00 +28°C° 0 mm 7 mps 747 mmHg 35%
17:00 +26°C° 0 mm 6 mps 747 mmHg 39%
18:00 +25°C° 0 mm 5 mps 747 mmHg 43%
19:00 +24°C° 0 mm 3 mps 747 mmHg 47%
20:00 +21°C° 0 mm 3 mps 747 mmHg 51%
21:00 +20°C° 0 mm 2 mps 747 mmHg 56%
22:00 +19°C° 0 mm 1 mps 748 mmHg 60%
23:00 +19°C° 0 mm 1 mps 747 mmHg 62%

Tomorrow, 31 July, Saturday

Time Temperature Precipitation Wind Pressure Humidity
00:00 +18°C° 0 mm 1 mps 747 mmHg 64%
01:00 +18°C° 0 mm 1 mps 747 mmHg 66%
02:00 +18°C° 0 mm 1 mps 747 mmHg 67%
03:00 +17°C° 0 mm 2 mps 747 mmHg 68%
04:00 +17°C° 0 mm 2 mps 747 mmHg 68%
05:00 +18°C° 0 mm 3 mps 747 mmHg 64%
06:00 +20°C° 0 mm 3 mps 747 mmHg 60%
07:00 +21°C° 0 mm 4 mps 747 mmHg 55%
08:00 +23°C° 0 mm 4 mps 747 mmHg 54%
09:00 +25°C° 0 mm 5 mps 747 mmHg 52%
10:00 +26°C° 0 mm 5 mps 747 mmHg 51%
11:00 +27°C° 0 mm 6 mps 746 mmHg 46%
12:00 +28°C° 0 mm 6 mps 746 mmHg 41%
13:00 +28°C° 0 mm 7 mps 746 mmHg 37%
14:00 +29°C° 0 mm 7 mps 746 mmHg 34%
15:00 +29°C° 0 mm 7 mps 746 mmHg 32%
16:00 +29°C° 0 mm 7 mps 745 mmHg 29%
17:00 +27°C° 0 mm 7 mps 746 mmHg 34%
18:00 +26°C° 0 mm 6 mps 746 mmHg 38%
19:00 +24°C° 0 mm 6 mps 746 mmHg 42%
20:00 +22°C° 0 mm 5 mps 746 mmHg 48%
21:00 +20°C° 0 mm 4 mps 747 mmHg 54%
22:00 +18°C° 0 mm 3 mps 747 mmHg 60%
23:00 +17°C° 0 mm 3 mps 747 mmHg 63%

Day after tomorrow, 1 August, Sunday

Time Temperature Precipitation Wind Pressure Humidity
00:00 +17°C° 0 mm 3 mps 747 mmHg 65%
01:00 +16°C° 0 mm 3 mps 747 mmHg 68%
02:00 +16°C° 0 mm 3 mps 747 mmHg 71%
03:00 +14°C° 0 mm 3 mps 748 mmHg 74%
04:00 +14°C° 0 mm 3 mps 748 mmHg 77%
05:00 +16°C° 0 mm 3 mps 748 mmHg 74%
06:00 +17°C° 0 mm 3 mps 748 mmHg 71%
07:00 +19°C° 0 mm 4 mps 748 mmHg 68%
08:00 +19°C° 0 mm 3 mps 748 mmHg 65%
09:00 +20°C° 0 mm 3 mps 748 mmHg 63%
10:00 +20°C° 0 mm 3 mps 748 mmHg 61%
11:00 +21°C° 0.1 mm 3 mps 748 mmHg 60%
12:00 +21°C° 0.1 mm 4 mps 748 mmHg 60%
13:00 +21°C° 0.1 mm 4 mps 748 mmHg 59%
14:00 +21°C° 0.2 mm 4 mps 748 mmHg 62%
15:00 +20°C° 0.2 mm 3 mps 748 mmHg 65%
16:00 +20°C° 0.2 mm 3 mps 748 mmHg 68%
17:00 +19°C° 0.2 mm 3 mps 748 mmHg 74%
18:00 +18°C° 0.2 mm 4 mps 748 mmHg 80%
19:00 +17°C° 0.2 mm 4 mps 748 mmHg 86%
20:00 +17°C° 0 mm 4 mps 748 mmHg 88%
21:00 +16°C° 0 mm 3 mps 748 mmHg 90%
22:00 +16°C° 0 mm 3 mps 748 mmHg 92%
23:00 +14°C° 0 mm 3 mps 748 mmHg 92%

2 August, Monday

Time Temperature Precipitation Wind Pressure Humidity
00:00 +14°C° 0 mm 3 mps 748 mmHg 93%
01:00 +15°C° 0 mm 2 mps 748 mmHg 93%
02:00 +15°C° 0 mm 2 mps 748 mmHg 93%
03:00 +13°C° 0 mm 3 mps 748 mmHg 93%
04:00 +13°C° 0 mm 3 mps 748 mmHg 92%
05:00 +16°C° 0 mm 3 mps 748 mmHg 87%
06:00 +17°C° 0 mm 4 mps 748 mmHg 81%
07:00 +18°C° 0 mm 4 mps 748 mmHg 75%
08:00 +20°C° 0.2 mm 5 mps 748 mmHg 69%
09:00 +21°C° 0.2 mm 6 mps 748 mmHg 63%
10:00 +22°C° 0.2 mm 6 mps 748 mmHg 56%
11:00 +22°C° 0.4 mm 7 mps 748 mmHg 56%
12:00 +22°C° 0.4 mm 7 mps 749 mmHg 56%
13:00 +22°C° 0.4 mm 7 mps 749 mmHg 56%
14:00 +22°C° 0.1 mm 7 mps 749 mmHg 53%
15:00 +22°C° 0.1 mm 6 mps 749 mmHg 51%
16:00 +21°C° 0.1 mm 6 mps 749 mmHg 49%
17:00 +21°C° 0 mm 5 mps 749 mmHg 49%
18:00 +20°C° 0 mm 5 mps 749 mmHg 49%
19:00 +20°C° 0 mm 5 mps 749 mmHg 49%
20:00 +19°C° 0 mm 4 mps 750 mmHg 51%
21:00 +18°C° 0 mm 4 mps 750 mmHg 54%
22:00 +17°C° 0 mm 4 mps 751 mmHg 56%
23:00 +15°C° 0 mm 4 mps 751 mmHg 60%

3 August, Tuesday

Time Temperature Precipitation Wind Pressure Humidity
00:00 +14°C° 0 mm 4 mps 751 mmHg 65%
01:00 +13°C° 0 mm 4 mps 751 mmHg 69%
02:00 +12°C° 0 mm 4 mps 751 mmHg 73%
03:00 +12°C° 0 mm 3 mps 752 mmHg 77%
04:00 +11°C° 0 mm 3 mps 752 mmHg 81%
05:00 +13°C° 0 mm 4 mps 752 mmHg 76%
06:00 +14°C° 0 mm 4 mps 752 mmHg 71%
07:00 +16°C° 0 mm 5 mps 753 mmHg 66%
08:00 +17°C° 0 mm 5 mps 753 mmHg 59%
09:00 +20°C° 0 mm 5 mps 753 mmHg 51%
10:00 +22°C° 0 mm 5 mps 753 mmHg 44%
11:00 +23°C° 0 mm 5 mps 753 mmHg 41%
12:00 +25°C° 0 mm 4 mps 753 mmHg 37%
13:00 +26°C° 0 mm 4 mps 752 mmHg 34%
14:00 +26°C° 0 mm 4 mps 752 mmHg 33%
15:00 +26°C° 0 mm 3 mps 752 mmHg 31%
16:00 +26°C° 0 mm 3 mps 752 mmHg 30%
17:00 +25°C° 0 mm 2 mps 752 mmHg 34%
18:00 +24°C° 0 mm 2 mps 752 mmHg 38%
19:00 +22°C° 0 mm 1 mps 752 mmHg 42%
20:00 +20°C° 0 mm 2 mps 752 mmHg 47%
21:00 +19°C° 0 mm 2 mps 752 mmHg 51%
22:00 +17°C° 0 mm 2 mps 752 mmHg 56%
23:00 +17°C° 0 mm 2 mps 752 mmHg 60%

4 August, Wednesday

Time Temperature Precipitation Wind Pressure Humidity
00:00 +17°C° 0 mm 2 mps 752 mmHg 64%
01:00 +16°C° 0 mm 2 mps 753 mmHg 68%
02:00 +17°C° 0 mm 2 mps 753 mmHg 65%
03:00 +17°C° 0 mm 2 mps 753 mmHg 62%
04:00 +17°C° 0 mm 2 mps 753 mmHg 59%
05:00 +18°C° 0 mm 2 mps 753 mmHg 58%
06:00 +18°C° 0 mm 2 mps 753 mmHg 56%
07:00 +19°C° 0 mm 2 mps 753 mmHg 54%
08:00 +20°C° 0 mm 2 mps 753 mmHg 51%
09:00 +21°C° 0 mm 2 mps 753 mmHg 48%
10:00 +24°C° 0 mm 2 mps 753 mmHg 45%
11:00 +25°C° 0 mm 2 mps 753 mmHg 41%
12:00 +26°C° 0 mm 2 mps 753 mmHg 38%
13:00 +27°C° 0 mm 3 mps 753 mmHg 35%
14:00 +27°C° 0 mm 3 mps 753 mmHg 35%
15:00 +27°C° 0 mm 3 mps 753 mmHg 35%
16:00 +27°C° 0 mm 3 mps 752 mmHg 35%
17:00 +26°C° 0 mm 3 mps 752 mmHg 39%
18:00 +25°C° 0 mm 3 mps 752 mmHg 42%
19:00 +24°C° 0 mm 3 mps 752 mmHg 45%
20:00 +21°C° 0 mm 3 mps 753 mmHg 50%
21:00 +20°C° 0 mm 4 mps 753 mmHg 55%
22:00 +19°C° 0 mm 4 mps 753 mmHg 60%
23:00 +18°C° 0 mm 4 mps 753 mmHg 65%
Show more